DW7447 Weather Reports


time (UTC)temp
F
wind
direction
speed
knots
gust
knots
rain 1hr
in
rain 24hr
in
rain mn
in
humidity
%
barometer
mb
20260905084248 60 251 6.1 16.5 0.00 0.00 0.00 72 1018.8
20260905083748 60 244 10.4 18.2 0.00 0.00 0.00 72 1018.6
20260905083248 59 226 7.0 18.2 0.00 0.00 0.00 72 1018.7
20260905082748 59 319 9.6 18.2 0.00 0.00 0.00 74 1018.4
20260905082248 59 274 9.6 18.2 0.00 0.00 0.00 74 1018.4
20260905081747 59 299 8.7 24.3 0.00 0.00 0.00 74 1018.4
20260905081248 58 264 7.8 24.3 0.00 0.00 0.00 74 1018.2
20260905080747 58 250 13.9 19.1 0.00 0.00 0.00 76 1018.3
20260905080246 58 243 8.7 19.1 0.00 0.00 0.00 76 1018.2
20260905075745 58 217 10.4 17.4 0.00 0.00 0.00 77 1018.0
20260905075245 57 227 9.6 18.2 0.00 0.00 0.00 78 1018.0
20260905074754 57 245 9.6 19.1 0.00 0.00 0.00 79 1018.1
20260905074246 57 281 9.6 19.1 0.00 0.00 0.00 79 1018.0
20260905072749 56 250 6.1 16.5 0.00 0.00 0.00 81 1017.8
20260905072248 56 278 8.7 16.5 0.00 0.00 0.00 81 1017.5
20260905071747 56 234 8.7 14.8 0.00 0.00 0.00 82 1017.5
20260905071248 55 237 9.6 14.8 0.00 0.00 0.00 82 1017.4
20260905070734 55 230 6.1 12.2 0.00 0.00 0.00 83 1017.5
20260905070225 55 223 7.8 12.2 0.00 0.00 0.00 83 1017.4
20260905065153 54 254 5.2 11.3 0.00 0.00 0.00 83 1017.4
20260905064648 54 255 5.2 11.3 0.00 0.00 0.00 83 1017.2
20260905064147 54 207 7.0 11.3 0.00 0.00 0.00 83 1017.2
20260905063648 54 220 7.8 13.0 0.00 0.00 0.00 83 1017.2
20260905063146 54 207 8.7 16.5 0.00 0.00 0.00 83 1017.1
20260905062647 54 195 7.0 16.5 0.00 0.00 0.00 83 1016.9
20260905061644 54 230 5.2 13.9 0.00 0.00 0.00 83 1016.8
20260905061135 54 252 6.1 14.8 0.00 0.00 0.00 84 1016.9
20260905055632 54 214 5.2 10.4 0.00 0.00 0.00 84 1016.6
20260905055132 54 221 5.2 12.2 0.00 0.00 0.00 84 1016.6
20260905054630 54 233 7.0 12.2 0.00 0.00 0.00 84 1016.3
20260905054133 54 207 4.3 15.6 0.00 0.00 0.00 84 1016.2
20260905053604 54 210 10.4 15.6 0.00 0.00 0.00 84 1016.1
20260905053106 54 247 5.2 11.3 0.00 0.00 0.00 84 1016.2
20260905052608 54 221 7.0 12.2 0.00 0.00 0.00 83 1016.1
20260905052104 54 257 7.0 13.9 0.00 0.00 0.00 83 1016.0
20260905051606 54 244 7.8 14.8 0.00 0.00 0.00 84 1016.0
20260905051105 54 219 6.1 15.6 0.00 0.00 0.00 84 1015.9
20260905050605 54 190 9.6 15.6 0.00 0.00 0.00 84 1015.8
20260905050104 54 202 7.8 14.8 0.00 0.00 0.00 85 1015.7
20260905045557 54 197 7.8 14.8 0.00 0.00 0.00 85 1015.7
20260905045047 54 224 5.2 14.8 0.00 0.00 0.00 85 1015.7
20260905044047 54 224 5.2 13.0 0.00 0.00 0.00 85 1015.5
20260905043543 55 237 7.0 13.0 0.00 0.00 0.00 84 1015.5
20260905043033 55 235 5.2 12.2 0.00 0.00 0.00 84 1015.5
20260905042019 55 235 7.0 12.2 0.00 0.00 0.00 83 1015.5
20260905041509 55 254 8.7 14.8 0.00 0.00 0.00 83 1015.3
20260905041008 55 264 7.8 14.8 0.00 0.00 0.00 83 1015.2
20260905040506 55 261 7.0 13.0 0.00 0.00 0.00 83 1015.2
20260905035503 55 279 7.0 13.0 0.00 0.00 0.00 83 1015.2
20260905035004 55 244 5.2 13.0 0.00 0.00 0.00 83 1015.2
20260905034502 55 251 6.1 11.3 0.00 0.00 0.00 83 1015.2
20260905034004 55 224 4.3 9.6 0.00 0.00 0.00 83 1015.2
20260905033452 55 251 6.1 10.4 0.00 0.00 0.00 84 1015.1
20260905032953 55 224 4.3 10.4 0.00 0.00 0.00 84 1015.1
20260905032446 55 237 6.1 11.3 0.00 0.00 0.00 83 1014.9
20260905031946 55 210 3.5 11.3 0.00 0.00 0.00 83 1014.9
20260905025947 56 224 5.2 13.0 0.00 0.00 0.00 82 1014.7
20260905025446 56 292 5.2 13.0 0.00 0.00 0.00 82 1014.6
20260905024947 56 228 7.0 15.6 0.00 0.00 0.00 82 1014.6
20260905023945 56 269 5.2 16.5 0.00 0.00 0.00 82 1014.3
20260905022945 56 250 7.8 15.6 0.00 0.00 0.00 83 1014.2
20260905022446 56 244 7.8 15.6 0.00 0.00 0.00 82 1014.2
20260905021947 55 282 8.7 13.9 0.00 0.00 0.00 83 1014.3
20260905021450 55 276 8.7 13.9 0.00 0.00 0.00 83 1014.2
20260905020448 55 234 7.0 14.8 0.00 0.00 0.00 84 1014.2
20260905015947 55 244 5.2 13.0 0.00 0.00 0.00 84 1014.1
20260905015448 55 290 4.3 13.0 0.00 0.00 0.00 84 1014.0
20260905014446 55 227 3.5 10.4 0.00 0.00 0.00 84 1013.9
20260905013944 55 244 5.2 12.2 0.00 0.00 0.00 84 1013.9
20260905013447 55 227 5.2 12.2 0.00 0.00 0.00 84 1013.9
20260905012946 55 265 4.3 11.3 0.00 0.00 0.00 84 1013.8
20260905012447 55 275 5.2 11.3 0.00 0.00 0.00 84 1013.8
20260905011946 55 240 6.1 13.0 0.00 0.01 0.00 86 1013.8
20260905010947 55 224 10.4 18.2 0.00 0.01 0.00 86 1013.7
20260905010448 55 220 5.2 11.3 0.00 0.01 0.00 86 1013.6
20260905005945 56 240 6.1 10.4 0.00 0.01 0.00 86 1013.6
20260905005448 56 244 6.1 10.4 0.00 0.01 0.00 86 1013.6
20260905004447 56 227 6.1 12.2 0.00 0.02 0.00 86 1013.5
20260905003947 56 238 3.5 11.3 0.00 0.02 0.00 86 1013.5
20260905003448 56 289 5.2 11.3 0.00 0.02 0.00 86 1013.5
20260905002947 56 214 3.5 14.8 0.00 0.02 0.00 86 1013.4
20260905002447 56 212 8.7 14.8 0.00 0.02 0.00 85 1013.2
20260905001946 56 271 3.5 13.0 0.00 0.02 0.00 85 1013.0
20260905001447 56 234 7.0 13.0 0.00 0.03 0.00 86 1013.0
20260905000946 56 259 7.8 13.0 0.00 0.03 0.00 86 1013.0
20260905000449 56 210 6.1 13.0 0.00 0.04 0.00 85 1013.0
20260904235947 56 204 7.8 13.0 0.00 0.05 0.00 85 1012.9
20260904235445 56 251 7.0 13.9 0.00 0.05 0.00 85 1012.8
20260904234947 56 230 7.0 13.9 0.00 0.06 0.00 85 1012.7
20260904233946 57 207 7.0 12.2 0.00 0.06 0.00 85 1012.6
20260904233447 57 190 5.2 11.3 0.00 0.06 0.00 85 1012.6
20260904232948 57 237 5.2 13.0 0.00 0.06 0.00 85 1012.5
20260904232448 57 209 5.2 13.9 0.00 0.06 0.00 85 1012.5
20260904231947 57 227 7.8 13.9 0.00 0.07 0.00 85 1012.5
20260904231449 57 212 7.8 13.0 0.00 0.07 0.00 84 1012.6
20260904230500 57 244 5.2 10.4 0.00 0.07 0.00 84 1012.6
20260904225447 57 219 2.6 11.3 0.00 0.08 0.08 84 1012.7
20260904224946 57 214 4.3 10.4 0.00 0.08 0.08 84 1012.5
20260904223946 58 189 5.2 10.4 0.00 0.09 0.08 84 1012.5
20260904223447 58 254 5.2 10.4 0.00 0.09 0.08 84 1012.4
20260904222947 58 217 5.2 12.2 0.00 0.09 0.08 85 1012.5
20260904222447 58 214 7.8 12.2 0.00 0.09 0.08 85 1012.5
20260904221946 58 250 6.1 10.4 0.00 0.09 0.08 85 1012.6
20260904221447 58 197 5.2 9.6 0.00 0.09 0.08 85 1012.5
20260904220947 58 254 4.3 10.4 0.00 0.09 0.08 85 1012.6
20260904215947 58 241 1.7 7.0 0.00 0.09 0.08 84 1012.4
20260904215445 58 289 4.3 7.8 0.00 0.09 0.08 84 1012.3
20260904214446 58 258 3.5 7.0 0.00 0.09 0.08 83 1012.2
20260904213947 58 221 1.7 10.4 0.00 0.09 0.08 83 1012.1
20260904213446 59 217 5.2 10.4 0.00 0.09 0.08 83 1012.2
20260904212946 59 237 3.5 13.0 0.00 0.09 0.08 83 1012.2
20260904212445 59 210 7.8 13.0 0.00 0.09 0.08 83 1012.0
20260904211937 59 237 6.1 15.6 0.00 0.09 0.08 83 1011.9
20260904210432 59 204 7.0 14.8 0.00 0.10 0.08 82 1011.8
20260904205930 59 254 5.2 14.8 0.00 0.10 0.08 82 1011.6
20260904205433 59 195 4.3 13.9 0.00 0.10 0.08 82 1011.6
20260904204933 59 261 7.8 13.9 0.00 0.10 0.08 82 1011.5
20260904203432 60 189 7.0 15.6 0.00 0.10 0.08 82 1011.7
20260904202931 60 243 8.7 14.8 0.00 0.10 0.08 82 1011.7
20260904202424 60 238 6.1 15.6 0.00 0.10 0.08 82 1011.8
20260904201923 60 258 9.6 15.6 0.00 0.11 0.08 81 1011.7
20260904201405 60 237 5.2 12.2 0.00 0.11 0.08 80 1011.7
20260904200904 60 203 6.1 14.8 0.00 0.11 0.08 80 1011.6
20260904195346 60 221 3.5 14.8 0.00 0.12 0.08 79 1011.5
20260904193847 60 238 5.2 12.2 0.00 0.14 0.08 78 1011.6
20260904193347 60 188 4.3 13.0 0.00 0.16 0.08 77 1011.5
20260904192850 61 234 6.1 13.0 0.00 0.17 0.08 77 1011.6
20260904191846 61 271 4.3 14.8 0.00 0.19 0.08 76 1011.3
20260904190847 62 279 6.1 13.0 0.00 0.20 0.08 76 1011.0
20260904190346 62 247 6.1 16.5 0.00 0.20 0.08 75 1011.0
20260904185333 62 248 9.6 19.1 0.00 0.20 0.08 75 1011.0
20260904184805 62 240 6.1 20.0 0.00 0.20 0.08 75 1010.9
20260904184307 62 254 13.9 20.0 0.00 0.20 0.08 75 1010.8
20260904183804 62 265 7.0 15.6 0.00 0.20 0.08 75 1010.7
20260904183302 62 240 7.0 15.6 0.00 0.20 0.08 75 1010.5
20260904182804 62 186 5.2 13.0 0.00 0.20 0.08 74 1010.6
20260904182301 62 262 7.8 14.8 0.00 0.20 0.08 74 1010.4
20260904181746 63 248 7.0 13.9 0.00 0.20 0.08 74 1010.4
20260904181243 63 274 6.1 13.9 0.00 0.20 0.08 73 1010.4
20260904180737 63 224 6.1 13.0 0.00 0.20 0.08 71 1010.4
20260904180234 63 219 8.7 13.9 0.00 0.20 0.08 71 1010.3
20260904175735 63 293 9.6 13.9 0.00 0.20 0.08 67 1010.2
20260904175210 64 252 7.0 15.6 0.00 0.20 0.08 67 1010.0
20260904174205 64 248 7.8 13.9 0.00 0.20 0.08 65 1010.0
20260904173144 64 257 7.8 24.3 0.00 0.20 0.08 63 1009.9
20260904172645 64 283 11.3 24.3 0.00 0.20 0.08 63 1010.1
20260904171645 65 230 7.0 20.9 0.00 0.20 0.08 62 1009.7
20260904171145 65 307 9.6 13.9 0.00 0.20 0.08 62 1009.8
20260904170646 65 250 8.7 15.6 0.00 0.20 0.08 61 1009.7
20260904170146 66 276 8.7 15.6 0.00 0.20 0.08 60 1009.6
20260904165644 66 269 7.8 16.5 0.00 0.20 0.08 59 1009.6
20260904165145 66 231 9.6 17.4 0.00 0.20 0.08 60 1009.6
20260904164643 66 258 7.8 24.3 0.00 0.20 0.08 60 1009.6
20260904164148 66 281 7.8 24.3 0.00 0.20 0.08 60 1009.6
20260904163646 66 197 6.1 15.6 0.00 0.20 0.08 63 1009.6
20260904163146 66 240 7.8 15.6 0.00 0.20 0.08 63 1009.5
20260904162647 65 224 7.0 14.8 0.00 0.20 0.08 63 1009.5
20260904161646 66 247 7.8 16.5 0.00 0.20 0.08 59 1009.2
20260904161147 67 248 8.7 20.9 0.00 0.20 0.08 57 1009.1
20260904160147 67 224 7.8 13.9 0.00 0.20 0.08 58 1009.2
20260904155647 67 289 8.7 20.9 0.00 0.20 0.08 56 1009.2
20260904155145 67 221 12.2 20.9 0.00 0.20 0.08 56 1009.2
20260904154645 67 243 9.6 20.9 0.00 0.20 0.08 57 1008.9
20260904153647 66 241 9.6 24.3 0.00 0.20 0.08 59 1008.7
20260904152646 66 320 10.4 20.0 0.00 0.20 0.08 60 1008.6
20260904152147 66 266 11.3 20.0 0.00 0.20 0.08 62 1008.4
20260904151645 65 286 8.7 19.1 0.00 0.20 0.08 63 1008.5
20260904151146 65 285 13.0 19.1 0.00 0.20 0.08 63 1008.4
20260904150646 65 234 12.2 19.1 0.00 0.20 0.08 63 1008.4
20260904150146 65 265 14.8 18.2 0.00 0.20 0.08 65 1008.4
20260904145645 65 252 6.1 17.4 0.00 0.20 0.08 66 1008.3
20260904145146 65 259 9.6 17.4 0.00 0.20 0.08 66 1008.4
20260904144646 65 241 9.6 16.5 0.00 0.20 0.08 66 1008.2
20260904144150 65 271 7.0 18.2 0.00 0.20 0.08 67 1008.1
20260904143651 65 252 12.2 18.2 0.00 0.20 0.08 65 1008.1
20260904143146 65 293 8.7 17.4 0.00 0.20 0.08 65 1007.9
20260904142646 66 186 13.9 17.4 0.00 0.20 0.08 65 1007.9
20260904141646 66 269 7.8 18.2 0.00 0.20 0.08 65 1007.8
20260904141146 65 262 7.8 16.5 0.00 0.20 0.08 66 1007.8
20260904140646 65 271 8.7 16.5 0.00 0.20 0.08 66 1007.8
20260904140147 65 274 9.6 16.5 0.00 0.20 0.08 66 1007.6
20260904135645 65 250 7.0 16.5 0.00 0.20 0.08 69 1007.6
20260904135147 65 259 8.7 17.4 0.00 0.20 0.08 68 1007.5
20260904134646 65 251 10.4 18.2 0.00 0.20 0.08 68 1007.6
20260904134155 65 255 8.7 18.2 0.00 0.20 0.08 69 1007.2
20260904133646 65 268 7.0 16.5 0.00 0.20 0.08 68 1007.1
20260904133146 66 235 9.6 22.6 0.00 0.20 0.08 68 1007.1
20260904132646 65 244 6.1 22.6 0.00 0.20 0.08 67 1007.1
20260904132147 65 265 9.6 19.1 0.00 0.20 0.08 69 1007.1
20260904131646 64 243 11.3 20.9 0.00 0.20 0.08 70 1006.9
20260904131147 64 248 8.7 22.6 0.00 0.20 0.08 69 1007.0
20260904130647 63 269 12.2 22.6 0.00 0.20 0.08 73 1007.0
20260904130147 63 275 5.2 15.6 0.00 0.20 0.08 73 1006.9
20260904125647 63 245 9.6 15.6 0.00 0.20 0.08 73 1006.9
20260904125146 63 227 7.0 19.1 0.00 0.20 0.08 72 1006.8
20260904124646 63 285 7.0 19.1 0.00 0.20 0.08 71 1006.7
20260904124146 63 238 11.3 20.9 0.00 0.20 0.08 72 1006.8
20260904123644 63 227 12.2 20.9 0.00 0.20 0.08 72 1006.9
20260904123146 64 285 9.6 20.0 0.00 0.20 0.08 72 1006.7
20260904122646 64 221 9.6 20.9 0.00 0.20 0.08 72 1006.7
20260904122146 64 259 9.6 20.9 0.00 0.20 0.08 72 1006.5
20260904121646 65 243 7.8 20.9 0.00 0.20 0.08 72 1006.5
20260904121146 65 166 11.3 20.9 0.00 0.20 0.08 71 1006.6
20260904120145 65 259 13.9 22.6 0.00 0.20 0.08 70 1006.2
20260904115646 64 281 13.9 22.6 0.00 0.20 0.08 71 1006.2
20260904115147 63 241 11.3 20.0 0.00 0.20 0.08 70 1006.1
20260904114650 64 223 11.3 20.0 0.00 0.20 0.08 70 1006.1
20260904114150 64 244 13.0 20.0 0.00 0.20 0.08 71 1006.0
20260904113646 63 244 8.7 18.2 0.00 0.20 0.08 73 1005.9
20260904113147 63 223 10.4 18.2 0.00 0.20 0.08 73 1006.0
20260904112647 63 238 8.7 18.2 0.00 0.20 0.08 73 1006.0
20260904111646 64 224 9.6 15.6 0.00 0.20 0.08 73 1005.9
20260904111144 64 293 6.1 19.1 0.00 0.20 0.08 72 1005.7
20260904110645 64 262 8.7 19.1 0.00 0.20 0.08 71 1005.8
20260904110145 64 214 6.1 20.0 0.00 0.20 0.08 72 1005.9
20260904105645 64 227 13.9 20.0 0.00 0.20 0.08 73 1005.7
20260904105146 64 234 8.7 17.4 0.00 0.20 0.08 74 1005.7
20260904104145 64 238 5.2 14.8 0.00 0.20 0.08 73 1005.7
20260904103645 64 216 7.8 14.8 0.00 0.20 0.08 72 1005.6
20260904103145 64 237 8.7 17.4 0.00 0.20 0.08 73 1005.4
20260904102644 64 251 9.6 18.2 0.00 0.20 0.08 71 1005.3
20260904102132 63 243 9.6 20.9 0.00 0.20 0.08 73 1005.3
20260904101611 62 223 13.0 20.9 0.00 0.20 0.08 75 1005.3
20260904101104 62 220 7.0 13.9 0.00 0.20 0.08 74 1005.3
20260904100605 62 233 7.0 19.1 0.00 0.20 0.08 74 1005.3
20260904100106 62 223 10.4 19.1 0.00 0.20 0.08 75 1005.3
20260904095604 62 248 12.2 18.2 0.00 0.20 0.08 75 1005.4
20260904094606 62 292 8.7 15.6 0.00 0.20 0.08 76 1005.2
20260904094047 62 213 7.0 15.6 0.00 0.20 0.08 76 1005.3
20260904093544 62 268 7.8 14.8 0.00 0.20 0.08 76 1005.3
20260904093044 62 259 9.6 20.0 0.00 0.20 0.08 76 1005.3
20260904092549 63 213 12.2 20.0 0.00 0.20 0.08 77 1005.4
20260904092046 63 261 7.8 16.5 0.00 0.20 0.08 77 1005.2
20260904091538 63 224 5.2 15.6 0.00 0.20 0.08 79 1005.3
20260904090507 61 233 8.7 15.6 0.00 0.20 0.08 81 1005.1
20260904090015 61 268 7.8 15.6 0.00 0.20 0.08 81 1005.2